Wetbulb
61.49 62.82 64.96 70.07 71.47 70.58 69.81 68.94 68.18 66.08 63.57 62.20 61.50 60.32 59.93 58.08 56.82 55.82 54.21 52.38 52.12 52.31
60.17 64.11 64.54 69.68 70.51 70.42 69.23 67.02 65.25 63.80 62.48 61.44 61.13 59.97 57.70 57.08 56.52 54.77 53.98 52.81 52.08 51.75
67.88 69.58 70.76 70.87 69.29 69.73 67.96 65.10 63.41 62.18 61.43 60.95 60.91 60.27 57.91 55.30 54.73 54.45 54.02 53.22 51.90 51.47
63.38 67.00 69.92 69.66 68.50 67.89 64.03 62.77 62.60 61.44 60.36 59.79 59.12 59.67 57.22 55.70 55.43 53.34 52.35 52.14 51.87 50.97
58.17 62.00 67.78 65.34 65.42 63.98 62.99 62.66 62.29 60.82 59.38 59.65 59.41 59.54 57.51 55.88 55.82 53.39 52.46 51.58 50.76 50.44
55.35 57.98 63.50 64.80 64.38 63.00 62.36 61.64 60.91 60.57 59.56 59.18 59.38 58.21 56.76 55.26 54.58 52.91 51.56 51.05 50.01 49.58
53.22 54.81 57.63 64.71 62.89 61.76 61.25 60.23 59.59 60.09 59.79 59.27 58.94 58.02 55.70 53.69 52.10 51.75 51.32 50.67 49.77 49.15
50.73 54.10 58.16 61.86 61.44 60.80 60.31 59.54 59.34 59.06 58.90 57.57 56.18 55.84 53.99 52.92 51.56 50.09 49.63 50.01 50.03 49.45
50.15 54.30 60.50 60.82 60.40 59.73 59.29 59.09 58.82 57.92 50.26 48.17 49.37 48.41 50.61 50.46 48.66 48.57 48.98 47.91 48.19 48.70
52.17 54.76 61.22 60.50 59.43 58.44 57.84 58.08 52.87 47.73 45.22 43.92 43.81 44.55 46.12 48.70 47.64 47.40 47.45 46.77 47.36 48.20
50.28 55.49 60.06 58.68 58.11 57.53 57.01 51.47 46.12 43.28 42.29 41.87 42.78 43.47 43.84 45.61 45.94 44.92 46.46 47.48 47.15 47.66
44.89 58.84 58.17 56.87 52.65 50.59 49.45 48.25 45.74 43.90 43.22 41.77 41.67 43.27 43.47 44.04 44.12 44.78 45.02 47.43 46.28 46.92
44.43 44.97 44.12 49.16 48.62 47.81 47.01 45.25 45.16 44.79 44.74 44.56 43.44 43.22 42.83 43.85 44.88 43.93 44.63 45.06 42.62 42.91
43.90 44.99 44.71 44.51 44.67 44.87 44.64 44.64 44.38 44.37 44.98 45.59 45.60 43.35 42.35 43.12 43.00 41.65 41.64 42.70 42.66 40.08
MSLP
1012.66 1010.78 1012.18 1008.55 1008.34 1008.36 1008.78 1009.14 1009.38 1010.26 1011.08 1011.52 1011.78 1012.33 1012.92 1013.46 1013.91 1014.42 1014.82 1015.30 1015.70 1016.11
1010.09 1009.76 1009.33 1008.32 1007.48 1007.80 1008.16 1008.47 1009.20 1009.80 1010.90 1011.87 1012.48 1012.58 1012.88 1013.55 1013.99 1014.37 1014.90 1015.32 1015.73 1016.24
1010.64 1008.94 1006.19 1005.71 1006.37 1007.13 1008.08 1008.54 1009.31 1010.30 1011.22 1012.08 1012.82 1013.26 1013.50 1013.85 1014.21 1014.61 1015.07 1015.37 1015.72 1016.24
1010.60 1008.78 1007.13 1006.30 1006.33 1007.07 1007.60 1008.26 1009.46 1010.18 1011.15 1012.34 1011.98 1012.54 1012.90 1013.60 1014.24 1014.87 1015.10 1015.34 1015.58 1016.27
1010.60 1009.37 1007.55 1006.66 1006.38 1006.78 1007.90 1008.34 1009.52 1009.76 1010.31 1011.58 1012.38 1012.43 1012.89 1012.84 1014.00 1014.85 1015.11 1015.46 1015.70 1016.35
1010.03 1009.19 1008.37 1006.58 1006.15 1006.38 1007.39 1008.43 1009.61 1010.22 1010.80 1011.56 1012.32 1012.64 1012.63 1012.86 1013.81 1014.60 1014.90 1015.19 1015.58 1016.28
1009.07 1008.14 1007.39 1005.91 1005.67 1006.00 1007.06 1007.92 1009.10 1010.08 1010.98 1011.70 1012.10 1012.28 1012.36 1013.16 1014.03 1014.52 1015.04 1015.32 1015.64 1016.01
1009.04 1007.76 1006.63 1005.72 1005.62 1006.16 1007.02 1007.63 1008.59 1009.95 1011.04 1011.66 1012.07 1012.19 1012.40 1013.44 1014.35 1014.73 1015.29 1015.60 1015.88 1016.29
1008.53 1007.28 1005.94 1005.17 1005.42 1006.14 1006.53 1007.85 1009.16 1009.96 1011.06 1011.93 1012.67 1012.31 1012.82 1013.73 1014.51 1015.13 1015.38 1016.04 1016.14 1016.49
1007.83 1006.72 1005.33 1005.04 1005.38 1005.82 1007.20 1008.35 1009.26 1010.33 1011.31 1012.38 1013.00 1013.12 1013.73 1014.50 1014.98 1015.50 1015.91 1016.20 1016.08 1016.44
1006.96 1005.85 1004.87 1004.63 1005.52 1005.82 1007.24 1008.51 1009.10 1011.14 1012.19 1013.00 1013.54 1014.02 1014.64 1015.29 1015.59 1016.28 1016.48 1016.42 1016.30 1016.12
1006.32 1003.56 1003.98 1003.80 1005.04 1006.29 1006.95 1008.16 1010.04 1011.02 1012.48 1013.39 1014.19 1014.80 1015.44 1015.87 1016.61 1016.97 1016.94 1016.93 1016.55 1016.60
1008.20 1006.48 1006.10 1006.98 1004.72 1006.19 1007.42 1007.98 1010.53 1011.49 1012.79 1013.86 1014.90 1015.63 1016.31 1016.62 1017.20 1017.56 1017.58 1017.05 1017.81 1017.50
1010.65 1009.06 1007.69 1008.40 1009.66 1006.96 1008.69 1009.52 1010.59 1012.41 1013.28 1014.07 1015.37 1016.16 1016.56 1017.26 1017.61 1017.62 1017.60 1018.02 1017.78 1018.14
Wind_Speed
12 18 23 9 8 9 9 8 9 9 9 8 9 8 8 6 5 7 6 8 6 4
7 29 31 29 9 8 8 7 10 12 10 7 6 7 8 6 7 6 5 6 6 5
13 20 17 13 11 11 7 9 12 9 10 7 5 3 4 5 6 7 4 4 7 5
16 18 17 7 8 11 11 15 13 12 11 8 9 7 7 7 7 7 7 6 7 6
15 17 16 5 10 13 12 12 10 13 14 12 9 7 8 10 8 8 7 7 7 7
17 14 16 8 11 14 15 12 13 10 10 10 6 6 8 8 8 7 7 7 8 6
19 17 17 8 13 15 15 15 14 10 9 9 8 7 8 10 8 7 7 7 7 6
20 18 19 10 11 14 13 13 14 12 11 7 5 6 10 9 7 8 7 6 4 5
20 17 17 15 16 15 15 15 13 11 12 11 7 16 16 10 7 7 6 4 4 4
17 16 10 11 11 15 16 14 14 14 14 13 10 16 16 13 6 6 5 3 3 1
15 16 15 17 15 14 11 15 16 14 13 13 10 16 14 12 7 6 4 1 1 2
19 10 13 16 18 17 18 18 13 14 14 14 12 17 16 11 7 6 6 6 7 4
20 17 19 13 19 16 18 19 13 15 13 16 12 15 14 10 4 4 4 7 6 12
19 18 20 22 13 17 16 17 16 14 11 11 10 11 14 12 5 4 5 3 2 1
Wind_Direction
313 318 288 250 179 177 184 167 150 135 156 149 150 139 132 130 121 121 121 115 102 93
283 291 261 252 193 181 176 154 148 150 144 152 152 147 136 133 131 126 124 118 102 99
278 291 280 260 210 178 158 138 143 124 138 135 157 168 136 132 128 121 129 121 106 99
322 316 299 233 170 160 148 146 152 151 152 175 160 158 152 141 131 123 129 127 119 106
320 318 299 209 149 146 159 148 157 162 154 162 179 171 160 145 145 149 139 132 109 119
315 317 312 175 158 146 146 157 156 166 160 162 170 162 163 138 135 132 133 129 120 126
307 310 314 210 163 147 150 149 148 163 158 164 172 167 131 121 125 115 114 114 123 137
296 297 304 177 166 150 153 151 147 152 163 150 125 133 119 109 110 111 113 115 124 137
287 285 271 176 163 156 149 143 157 149 113 100 92 87 86 100 101 107 115 144 132 178
266 271 225 164 157 162 153 151 113 112 108 98 87 76 75 74 88 88 94 110 119 133
306 251 201 152 149 143 133 115 109 104 98 96 81 73 63 55 52 47 16 354 268 176
346 240 170 147 130 122 110 109 99 105 103 95 82 71 60 58 44 30 14 17 17 46
23 29 42 15 119 110 112 101 111 95 96 97 94 85 73 64 51 41 23 57 58 65
25 38 52 56 354 87 86 96 91 96 91 96 108 92 80 69 76 49 26 357 33 57